TimeEST,TemperatureF,Dew PointF,Humidity,Sea Level PressureIn,VisibilityMPH,Wind Direction,Wind SpeedMPH,Gust SpeedMPH,PrecipitationIn,Events,Conditions,WindDirDegrees,DateUTC
12:53 AM,72.0,59.0,64,30.19,10.0,SE,10.4,-,N/A,,Mostly Cloudy,130,2013-01-01 05:53:00
1:53 AM,71.1,57.0,61,30.18,10.0,SE,12.7,-,N/A,,Mostly Cloudy,140,2013-01-01 06:53:00
2:53 AM,71.1,57.9,63,30.17,10.0,SE,6.9,-,N/A,,Mostly Cloudy,130,2013-01-01 07:53:00
3:53 AM,71.1,55.9,59,30.17,10.0,SE,6.9,-,N/A,,Mostly Cloudy,140,2013-01-01 08:53:00
4:53 AM,71.1,55.9,59,30.16,10.0,ESE,10.4,-,N/A,,Mostly Cloudy,120,2013-01-01 09:53:00
5:53 AM,71.1,55.0,57,30.15,10.0,ESE,11.5,-,N/A,,Mostly Cloudy,120,2013-01-01 10:53:00
6:53 AM,71.1,57.0,61,30.14,10.0,SE,10.4,-,N/A,,Mostly Cloudy,130,2013-01-01 11:53:00
7:53 AM,72.0,57.9,61,30.15,10.0,SE,11.5,-,N/A,,Mostly Cloudy,140,2013-01-01 12:53:00
8:53 AM,73.0,60.1,64,30.17,10.0,SE,12.7,-,N/A,,Mostly Cloudy,140,2013-01-01 13:53:00
9:53 AM,75.0,57.9,55,30.17,10.0,SSE,10.4,-,N/A,,Mostly Cloudy,150,2013-01-01 14:53:00
10:53 AM,75.9,59.0,56,30.16,10.0,SSE,13.8,19.6,N/A,,Mostly Cloudy,150,2013-01-01 15:53:00
11:53 AM,77.0,60.1,56,30.14,10.0,SSE,13.8,-,N/A,,Mostly Cloudy,160,2013-01-01 16:53:00
12:53 PM,77.0,59.0,54,30.10,10.0,SSE,15.0,24.2,N/A,,Mostly Cloudy,150,2013-01-01 17:53:00
1:53 PM,78.1,59.0,52,30.07,10.0,South,10.4,20.7,N/A,,Mostly Cloudy,190,2013-01-01 18:53:00
2:53 PM,77.0,61.0,58,30.07,10.0,South,9.2,-,N/A,,Mostly Cloudy,190,2013-01-01 19:53:00
3:53 PM,75.9,62.1,62,30.06,10.0,SSE,9.2,-,N/A,,Mostly Cloudy,150,2013-01-01 20:53:00
4:53 PM,75.0,62.1,64,30.06,10.0,SSE,9.2,-,N/A,,Overcast,150,2013-01-01 21:53:00
5:53 PM,73.9,60.1,62,30.06,10.0,South,6.9,-,N/A,,Mostly Cloudy,180,2013-01-01 22:53:00
6:53 PM,73.0,60.1,64,30.07,10.0,SSW,3.5,-,N/A,,Mostly Cloudy,200,2013-01-01 23:53:00
7:53 PM,73.0,60.1,64,30.08,10.0,Calm,Calm,-,N/A,,Mostly Cloudy,0,2013-01-02 00:53:00
8:53 PM,70.0,61.0,73,30.08,10.0,Calm,Calm,-,N/A,,Mostly Cloudy,0,2013-01-02 01:53:00
9:53 PM,70.0,62.1,76,30.09,10.0,Calm,Calm,-,N/A,,Mostly Cloudy,0,2013-01-02 02:53:00
10:53 PM,68.0,61.0,78,30.08,10.0,SE,3.5,-,N/A,,Scattered Clouds,140,2013-01-02 03:53:00
11:53 PM,66.9,61.0,81,30.07,10.0,Calm,Calm,-,N/A,,Partly Cloudy,0,2013-01-02 04:53:00